Location: Newark
(49.8348°N, 24.0280°E)
Time: 00:10:15
(UTC+00:00)

ISS - Visible Passes

Search period start: 13 December 2019 00:00
Search period end: 23 December 2019 00:00
Orbit: 411 x 421 km, 51.6° (Epoch: 13 December)

Date Brightness Start Highest point End Pass type
(mag) Time Alt. Az. Time Alt. Az. Time Alt. Az.
13 Dec -0.7 15:03:26 10° W 15:05:49 18° SW 15:08:12 10° S visible
21 Dec -0.8 05:22:11 10° S 05:24:40 20° SE 05:27:10 10° E visible
22 Dec -0.6 04:34:41 10° SSE 04:36:19 13° SE 04:37:57 10° ESE visible
